When you browse on this site, cookies collect data to enhance your experience and personalize the content and advertising you see.
Visit our Privacy Policy to learn more. By continuing to use the site, you agree to this use of cookies and data.
  • In Schweiz
  • Länderverzeichnis
  • Für 7 Tage
  • Wassertemperatur
  • Satellitenkarten
  • Wetterkarte
  • Widgets
  • user-avatar
    Anmelden

    Stündliche Wetter Plav'ya

    Heute, 20 April, Samstag

    Zeit Temperatur Niederschläge Wind Luftdruck Luftfeuchtigkeit
    00:00 +5°C° 0 mm 2 m/S 708 mmHg 94%
    01:00 +5°C° 0 mm 2 m/S 708 mmHg 91%
    02:00 +4°C° 0 mm 2 m/S 708 mmHg 90%
    03:00 +5°C° 0 mm 1 m/S 708 mmHg 92%
    04:00 +5°C° 0 mm 1 m/S 708 mmHg 92%
    05:00 +5°C° 0 mm 1 m/S 708 mmHg 91%
    06:00 +5°C° 0 mm 1 m/S 708 mmHg 90%
    07:00 +5°C° 0 mm 1 m/S 708 mmHg 90%
    08:00 +7°C° 0 mm 1 m/S 709 mmHg 98%
    09:00 +8°C° 0 mm 3 m/S 709 mmHg 86%
    10:00 +7°C° 0 mm 4 m/S 709 mmHg 80%
    11:00 +8°C° 0 mm 4 m/S 709 mmHg 81%
    12:00 +10°C° 0 mm 3 m/S 709 mmHg 82%
    13:00 +10°C° 0 mm 3 m/S 709 mmHg 79%
    14:00 +10°C° 0 mm 3 m/S 709 mmHg 80%
    15:00 +10°C° 0.1 mm 2 m/S 708 mmHg 87%
    16:00 +12°C° 0.1 mm 1 m/S 708 mmHg 81%
    17:00 +12°C° 0 mm 2 m/S 707 mmHg 84%
    18:00 +12°C° 0 mm 2 m/S 707 mmHg 78%
    19:00 +10°C° 0 mm 2 m/S 707 mmHg 88%
    20:00 +10°C° 0 mm 1 m/S 706 mmHg 91%
    21:00 +9°C° 0 mm 1 m/S 706 mmHg 100%
    22:00 +8°C° 0 mm 2 m/S 705 mmHg 100%
    23:00 +7°C° 0.1 mm 3 m/S 705 mmHg 100%

    Morgen, 21 April, Sonntag

    Zeit Temperatur Niederschläge Wind Luftdruck Luftfeuchtigkeit
    00:00 +8°C° 2.1 mm 1 m/S 705 mmHg 100%
    01:00 +7°C° 1.2 mm 2 m/S 704 mmHg 100%
    02:00 +7°C° 0 mm 2 m/S 704 mmHg 100%
    03:00 +7°C° 0 mm 2 m/S 704 mmHg 100%
    04:00 +7°C° 0 mm 1 m/S 704 mmHg 100%
    05:00 +7°C° 0 mm 1 m/S 703 mmHg 100%
    06:00 +6°C° 0 mm 2 m/S 703 mmHg 100%
    07:00 +6°C° 0 mm 2 m/S 703 mmHg 100%
    08:00 +7°C° 0 mm 2 m/S 703 mmHg 100%
    09:00 +8°C° 0 mm 2 m/S 704 mmHg 100%
    10:00 +9°C° 0 mm 3 m/S 704 mmHg 98%
    11:00 +9°C° 0 mm 2 m/S 703 mmHg 94%
    12:00 +9°C° 0.4 mm 3 m/S 703 mmHg 100%
    13:00 +10°C° 0.7 mm 1 m/S 703 mmHg 100%
    14:00 +9°C° 2.5 mm 3 m/S 702 mmHg 100%
    15:00 +8°C° 1.1 mm 4 m/S 702 mmHg 100%
    16:00 +8°C° 0.2 mm 4 m/S 701 mmHg 99%
    17:00 +10°C° 0 mm 3 m/S 701 mmHg 95%
    18:00 +8°C° 0.1 mm 3 m/S 701 mmHg 100%
    19:00 +9°C° 0.1 mm 1 m/S 701 mmHg 100%
    20:00 +9°C° 0 mm 1 m/S 701 mmHg 100%
    21:00 +7°C° 0 mm 2 m/S 701 mmHg 100%
    22:00 +8°C° 0 mm 1 m/S 701 mmHg 100%
    23:00 +7°C° 0 mm 1 m/S 701 mmHg 100%

    übermorgen, 22 April, Montag

    Zeit Temperatur Niederschläge Wind Luftdruck Luftfeuchtigkeit
    00:00 +7°C° 0 mm 1 m/S 701 mmHg 100%
    01:00 +7°C° 0 mm 1 m/S 700 mmHg 100%
    02:00 +6°C° 0 mm 1 m/S 700 mmHg 100%
    03:00 +6°C° 0 mm 1 m/S 700 mmHg 100%
    04:00 +6°C° 0 mm 1 m/S 700 mmHg 100%
    05:00 +6°C° 0 mm 1 m/S 700 mmHg 100%
    06:00 +5°C° 0 mm 2 m/S 700 mmHg 100%
    07:00 +6°C° 0 mm 2 m/S 700 mmHg 100%
    08:00 +7°C° 0 mm 3 m/S 700 mmHg 100%
    09:00 +7°C° 0 mm 4 m/S 701 mmHg 100%
    10:00 +8°C° 0 mm 3 m/S 701 mmHg 100%
    11:00 +8°C° 0 mm 4 m/S 701 mmHg 100%
    12:00 +10°C° 0.2 mm 4 m/S 701 mmHg 100%
    13:00 +8°C° 1.2 mm 5 m/S 701 mmHg 100%
    14:00 +9°C° 0.6 mm 3 m/S 701 mmHg 100%
    15:00 +10°C° 0 mm 4 m/S 701 mmHg 100%
    16:00 +7°C° 5 mm 5 m/S 701 mmHg 100%
    17:00 +8°C° 2.9 mm 4 m/S 701 mmHg 96%
    18:00 +10°C° 0 mm 4 m/S 701 mmHg 96%
    19:00 +8°C° 0 mm 4 m/S 701 mmHg 98%
    20:00 +8°C° 1.1 mm 3 m/S 701 mmHg 100%
    21:00 +7°C° 0 mm 4 m/S 702 mmHg 96%
    22:00 +8°C° 0 mm 3 m/S 702 mmHg 97%
    23:00 +7°C° 0 mm 3 m/S 702 mmHg 97%

    23 April, Dienstag

    Zeit Temperatur Niederschläge Wind Luftdruck Luftfeuchtigkeit
    00:00 +7°C° 0 mm 3 m/S 702 mmHg 98%
    01:00 +5°C° 0.1 mm 4 m/S 702 mmHg 100%
    02:00 +5°C° 0 mm 4 m/S 702 mmHg 98%
    03:00 +5°C° 0 mm 4 m/S 702 mmHg 99%
    04:00 +4°C° 0 mm 3 m/S 701 mmHg 98%
    05:00 +4°C° 0 mm 3 m/S 701 mmHg 96%
    06:00 +4°C° 0 mm 4 m/S 701 mmHg 95%
    07:00 +5°C° 0 mm 3 m/S 701 mmHg 94%
    08:00 +7°C° 0 mm 4 m/S 702 mmHg 92%
    09:00 +8°C° 0 mm 6 m/S 702 mmHg 88%
    10:00 +9°C° 0 mm 6 m/S 703 mmHg 88%
    11:00 +10°C° 0 mm 7 m/S 703 mmHg 89%
    12:00 +10°C° 0 mm 8 m/S 703 mmHg 90%
    13:00 +9°C° 0 mm 7 m/S 703 mmHg 99%
    14:00 +9°C° 0 mm 7 m/S 703 mmHg 100%

    24 April, Mittwoch

    Zeit Temperatur Niederschläge Wind Luftdruck Luftfeuchtigkeit

    25 April, Donnerstag

    Zeit Temperatur Niederschläge Wind Luftdruck Luftfeuchtigkeit
    Mehr zeigen